Wind_Speed
14 12 15 13 11 6 16 21 14 17 23 15 7 18 21 14 5 7 9 8 8 7 5 8 10 12 10 8 3 3 7 10 12 11 7 11 18 27 40 28 24 24 23 26
13 12 12 13 14 14 16 22 21 14 11 14 15 19 27 28 22 13 8 8 6 7 8 10 7 13 12 10 9 6 3 8 15 11 10 7 15 22 30 22 23 23 26 23
16 12 10 12 9 11 13 18 18 8 2 3 5 19 27 27 28 17 11 11 10 7 7 5 6 7 13 13 12 11 7 5 11 13 13 12 12 16 19 22 21 26 27 27
16 10 10 7 9 9 12 16 15 8 5 1 10 20 22 32 28 17 13 10 4 4 7 9 8 7 7 8 11 14 13 12 12 16 16 15 13 17 20 22 24 22 29 28
15 9 10 3 7 8 10 11 18 26 21 11 15 22 29 29 25 18 13 12 12 8 5 4 9 13 9 8 10 13 15 16 16 15 20 19 17 20 24 23 23 27 26 22
15 9 8 7 9 9 18 19 14 21 19 15 14 19 32 33 22 18 13 9 9 11 7 8 5 3 9 13 13 16 17 18 21 21 22 20 19 21 23 26 28 30 32 31
17 11 5 17 15 15 14 15 12 17 12 8 12 23 29 21 16 12 11 13 13 12 14 13 11 7 4 5 9 13 19 20 22 25 26 26 25 21 26 25 29 32 35 34
18 14 10 20 16 17 15 12 11 13 7 5 17 24 16 13 9 6 8 8 9 9 10 9 8 8 7 7 6 5 12 19 21 25 29 31 29 28 27 38 37 35 35 35
22 18 15 22 17 20 22 18 17 8 3 8 17 13 10 14 5 2 7 8 8 9 10 8 10 11 15 16 13 11 9 2 13 18 24 32 34 34 32 33 38 39 40 43
28 21 21 21 23 16 15 19 7 6 6 12 8 8 6 7 4 1 5 7 6 7 6 9 13 15 16 17 17 15 15 15 9 3 11 17 27 31 34 34 35 38 42 46
30 25 21 22 21 23 26 18 19 15 14 5 2 10 5 5 3 4 6 6 5 3 5 7 11 13 13 14 15 17 17 15 15 15 15 4 11 20 26 28 31 31 31 34
31 26 24 25 19 25 23 20 20 17 15 11 6 9 12 6 4 2 2 3 2 3 6 6 6 8 8 8 9 10 11 14 13 11 13 15 12 3 7 11 9 7 12 13
35 28 31 23 22 19 21 29 26 21 17 11 9 7 13 6 3 5 6 5 8 8 2 5 6 4 4 5 6 5 6 7 7 9 9 10 13 15 16 21 4 8 10 17
41 32 27 27 27 22 28 27 27 21 16 10 5 7 13 9 7 5 6 5 8 11 11 5 5 6 7 6 7 7 5 3 7 7 6 9 4 11 6 7 13 17 13 17
44 36 34 29 20 19 18 25 22 23 22 5 3 11 9 11 9 10 9 9 9 10 11 11 9 8 8 8 8 9 10 9 7 10 13 7 4 8 10 17 20 20 15 21
47 40 34 29 26 15 15 11 17 20 20 17 15 19 17 13 8 9 8 8 7 8 9 9 8 7 6 5 5 5 6 8 11 12 13 12 13 14 14 22 29 25 26 28
47 42 35 34 29 21 15 11 8 9 11 16 17 15 17 16 13 14 14 13 12 11 11 11 10 9 10 10 8 6 5 4 7 11 12 14 15 17 19 24 30 33 31 33
50 42 39 39 32 25 20 18 8 5 11 7 9 13 13 13 16 18 18 16 15 15 15 15 14 13 14 13 13 12 11 10 10 11 11 12 14 17 20 22 26 31 36 40
55 50 48 39 30 33 23 19 12 7 5 11 12 9 12 14 13 14 15 16 17 18 19 19 19 19 19 20 19 19 20 19 18 18 18 19 19 20 21 23 25 29 32 34
59 54 49 42 36 32 33 27 18 9 7 7 12 16 17 12 12 13 14 16 19 21 22 23 23 23 24 24 25 25 25 25 25 24 25 26 26 26 27 29 30 32 33 34
54 52 47 45 35 30 27 22 23 14 17 8 11 15 16 12 14 15 17 18 21 23 23 24 25 26 26 26 27 28 29 29 29 30 30 31 32 32 34 36 36 37 39 40
57 54 48 42 36 32 28 27 28 24 17 12 14 14 16 15 17 18 18 20 23 24 25 27 28 28 28 29 29 30 30 30 30 30 32 34 35 37 40 42 42 44 44 47
63 55 51 45 39 36 32 27 26 25 23 18 16 15 17 15 19 21 20 22 24 25 26 27 28 29 31 32 32 33 34 35 35 35 36 37 38 40 42 44 47 50 52 54
65 60 56 52 46 42 38 35 26 29 28 23 19 19 19 20 22 24 25 24 26 27 27 28 30 31 33 34 35 37 38 39 39 39 40 40 43 45 48 51 54 58 59 61
70 65 60 57 52 48 40 34 30 30 29 29 23 22 18 21 26 29 31 30 29 29 31 30 31 33 34 36 37 38 40 42 43 45 46 46 49 52 55 58 62 64 66 68
73 66 64 60 55 47 38 36 34 27 30 33 31 29 22 26 30 32 35 36 35 35 36 35 36 36 37 39 41 43 44 47 50 52 54 55 56 58 62 65 69 72 73 74
Wind_Direction
309 293 275 274 265 263 221 226 236 326 5 2 13 14 23 360 337 9 336 328 328 302 291 267 255 244 234 230 215 90 93 152 136 107 69 134 170 186 179 185 199 191 190 202
297 282 292 285 266 251 257 245 255 299 341 14 28 19 18 16 17 337 345 346 322 325 319 326 297 239 237 232 227 206 126 152 158 143 119 144 185 197 197 181 192 201 198 209
281 284 308 305 275 260 256 256 264 246 32 111 345 346 359 4 5 347 311 297 296 275 258 274 285 247 239 236 225 227 213 188 183 172 170 165 176 205 211 205 202 202 209 216
273 282 300 277 251 248 199 191 180 153 64 250 308 323 322 348 352 358 3 358 330 257 262 254 278 273 264 255 244 236 227 209 200 188 194 179 188 200 212 220 210 215 213 220
264 266 288 257 244 218 221 199 179 155 175 218 285 306 320 332 352 10 13 45 60 61 36 316 284 269 267 246 252 248 239 228 216 208 206 201 197 212 219 214 213 213 217 229
246 241 261 168 185 178 151 155 171 175 201 227 308 300 310 320 344 5 28 49 55 39 28 38 27 286 258 270 257 250 240 235 232 222 218 227 219 206 205 216 217 221 227 236
235 233 232 172 171 153 156 175 134 142 181 257 313 320 304 321 347 14 54 61 53 41 38 32 28 32 12 311 260 246 243 237 233 235 233 229 228 227 221 215 221 229 233 239
227 222 198 187 180 179 168 163 149 148 146 350 348 323 316 330 338 9 72 66 63 55 42 16 4 8 354 354 5 332 249 242 241 236 235 234 232 229 225 226 229 230 236 242
219 212 199 191 193 176 171 155 142 121 266 323 332 330 298 307 306 219 104 97 87 82 81 61 64 51 41 46 40 38 46 350 241 243 244 237 233 234 234 232 233 239 243 245
215 206 203 193 193 182 156 132 110 179 262 298 2 350 340 301 291 131 117 119 102 92 79 69 55 50 52 46 47 38 38 45 55 217 244 247 241 239 238 238 241 244 248 253
210 210 198 204 195 175 165 157 180 190 241 241 292 357 354 319 274 189 165 160 152 148 72 36 45 44 45 54 58 52 47 41 36 53 60 50 246 244 246 245 247 252 259 265
205 206 193 207 193 209 190 184 189 212 237 267 206 359 355 329 299 270 251 287 295 22 14 9 29 38 52 49 53 54 49 50 59 46 45 50 58 139 195 218 228 257 284 313
204 205 206 204 202 213 213 216 211 229 234 271 219 299 325 310 284 265 288 313 318 325 343 327 359 24 44 66 75 58 67 76 58 64 76 71 77 116 123 118 76 239 217 252
201 199 202 201 203 206 202 213 212 199 227 229 232 301 307 301 289 293 307 314 320 328 333 348 6 359 13 18 12 14 29 66 138 137 123 357 120 151 171 244 175 181 218 231
204 200 205 210 211 218 210 210 211 207 227 244 358 299 316 309 316 335 337 358 342 332 333 342 349 352 355 2 357 348 341 337 314 302 319 318 224 215 217 193 191 211 236 251
205 205 203 204 205 194 220 188 203 224 237 260 270 280 302 311 328 318 335 334 339 357 346 341 340 337 348 1 355 329 310 305 306 299 292 280 260 247 235 215 213 224 239 249
207 206 208 212 204 206 195 195 178 218 248 243 263 275 280 289 312 313 314 320 330 328 326 330 334 342 349 353 357 351 347 312 289 289 291 284 278 267 254 241 244 251 259 267
210 209 213 216 214 209 204 193 163 191 231 247 254 267 287 298 287 286 291 298 302 307 312 316 320 326 326 330 336 333 329 322 312 303 298 283 273 273 273 272 269 267 266 269
208 209 215 215 220 214 212 204 199 219 252 228 236 254 258 258 267 278 288 296 304 306 307 307 307 313 317 320 321 318 318 319 315 310 307 306 302 298 291 286 281 279 276 276
208 210 213 214 221 217 217 203 218 224 242 265 256 251 261 278 296 301 306 312 316 317 313 311 313 313 312 313 313 313 313 312 310 312 312 311 307 306 303 301 297 293 287 284
212 213 217 221 220 229 221 214 222 218 236 259 287 281 280 315 315 311 316 323 326 321 314 315 318 318 320 319 318 316 315 313 308 307 308 308 308 308 308 307 305 304 301 300
214 217 219 222 226 231 237 233 232 229 243 263 278 293 294 309 318 309 310 320 323 329 327 323 320 319 320 320 319 319 320 318 316 315 314 313 314 314 313 312 310 309 308 308
212 211 215 222 222 226 234 229 224 228 235 251 265 286 295 299 306 314 309 313 318 322 327 322 319 317 318 318 320 320 321 321 320 320 320 320 319 316 315 313 313 311 310 310
212 212 216 218 222 227 228 232 232 238 242 251 255 269 290 305 301 304 308 311 310 310 317 323 322 321 322 322 323 324 324 323 323 322 321 318 317 316 316 316 315 314 313 312
213 213 217 220 217 222 229 239 237 243 247 251 248 255 280 293 302 303 302 303 305 307 309 314 318 319 319 320 319 319 320 319 318 316 315 315 315 316 316 316 316 316 316 318
213 213 218 223 222 224 233 241 239 247 255 260 258 262 273 283 296 304 303 301 302 306 308 310 312 314 317 319 319 318 317 315 315 315 314 313 314 315 315 316 318 319 321 323
Height
10983 10982 10980 10979 10979 10979 10978 10976 10977 10978 10977 10972 10971 10967 10964 10963 10964 10964 10965 10965 10964 10965 10964 10963 10963 10963 10965 10967 10967 10967 10967 10967 10968 10969 10969 10970 10973 10977 10984 10988 10992 10997 11000 11002
10982 10982 10980 10979 10977 10976 10977 10979 10979 10981 10977 10977 10971 10969 10967 10965 10964 10964 10964 10964 10964 10963 10963 10962 10962 10961 10962 10965 10966 10966 10967 10967 10968 10970 10972 10973 10974 10978 10983 10988 10991 10996 10999 11003
10980 10980 10980 10975 10976 10975 10974 10973 10975 10977 10978 10975 10971 10969 10969 10967 10964 10962 10961 10960 10960 10960 10960 10961 10961 10962 10962 10963 10964 10965 10967 10968 10968 10971 10973 10975 10978 10979 10983 10988 10992 10996 11000 11003
10977 10977 10977 10976 10974 10971 10971 10972 10975 10977 10975 10974 10972 10971 10972 10967 10963 10958 10957 10955 10955 10957 10957 10957 10958 10960 10962 10962 10962 10963 10964 10967 10968 10970 10972 10974 10976 10980 10983 10987 10991 10996 11000 11004
10976 10976 10976 10974 10972 10970 10971 10971 10974 10969 10972 10975 10975 10973 10971 10972 10966 10960 10957 10956 10955 10955 10957 10956 10956 10957 10959 10961 10961 10961 10962 10963 10966 10969 10971 10974 10977 10980 10983 10987 10992 10996 11000 11002
10974 10974 10975 10975 10975 10972 10969 10972 10973 10974 10974 10976 10977 10975 10971 10969 10965 10961 10959 10958 10959 10958 10958 10958 10956 10956 10956 10958 10958 10958 10960 10961 10962 10965 10969 10971 10974 10977 10982 10985 10988 10991 10993 10995
10970 10971 10973 10975 10977 10974 10973 10972 10973 10975 10977 10980 10980 10976 10972 10969 10969 10965 10962 10961 10961 10961 10960 10959 10959 10958 10957 10957 10957 10956 10956 10957 10960 10962 10964 10967 10971 10974 10977 10980 10983 10985 10987 10989
10966 10969 10969 10971 10976 10973 10973 10973 10973 10974 10976 10978 10977 10975 10971 10972 10970 10968 10966 10965 10967 10965 10964 10963 10961 10960 10959 10958 10956 10954 10954 10954 10956 10957 10959 10962 10966 10969 10972 10976 10979 10982 10984 10986
10963 10966 10967 10968 10970 10973 10971 10969 10971 10973 10975 10976 10975 10974 10973 10971 10972 10971 10969 10968 10969 10969 10968 10967 10964 10962 10959 10957 10956 10954 10952 10952 10952 10953 10955 10957 10960 10963 10966 10969 10972 10976 10979 10981
10958 10961 10962 10964 10970 10970 10971 10970 10970 10973 10977 10978 10977 10975 10973 10973 10971 10971 10971 10971 10971 10971 10971 10968 10966 10964 10961 10958 10956 10954 10954 10952 10951 10951 10951 10952 10955 10958 10962 10965 10968 10969 10973 10977
10952 10957 10960 10963 10968 10967 10968 10968 10970 10973 10975 10975 10977 10978 10974 10973 10973 10973 10973 10973 10974 10974 10972 10970 10968 10965 10963 10961 10959 10958 10956 10953 10951 10951 10950 10949 10950 10952 10954 10958 10961 10967 10973 10976
10948 10952 10955 10956 10965 10966 10969 10969 10972 10972 10974 10976 10976 10976 10975 10974 10974 10974 10973 10972 10973 10971 10969 10970 10969 10967 10965 10963 10961 10959 10957 10956 10954 10952 10950 10949 10949 10948 10950 10954 10959 10965 10969 10975
10941 10948 10949 10952 10958 10963 10967 10965 10969 10970 10974 10975 10976 10974 10972 10975 10975 10972 10972 10973 10970 10969 10970 10969 10966 10966 10964 10962 10961 10960 10958 10957 10956 10953 10950 10951 10951 10948 10948 10949 10951 10953 10957 10952
10933 10941 10947 10947 10948 10958 10964 10963 10965 10970 10969 10973 10972 10972 10973 10973 10971 10970 10971 10973 10970 10967 10966 10967 10966 10963 10961 10959 10958 10956 10956 10955 10955 10954 10951 10949 10948 10948 10946 10944 10943 10943 10944 10950
10926 10935 10939 10944 10949 10953 10959 10963 10964 10967 10968 10970 10968 10968 10972 10971 10969 10970 10970 10970 10969 10968 10966 10964 10964 10963 10962 10960 10957 10956 10955 10954 10953 10951 10948 10947 10945 10945 10943 10941 10938 10937 10938 10939
10919 10928 10934 10939 10944 10949 10955 10960 10963 10964 10965 10967 10967 10968 10965 10966 10967 10966 10966 10967 10966 10965 10965 10964 10963 10962 10961 10960 10959 10958 10957 10955 10952 10950 10947 10946 10944 10942 10940 10937 10934 10931 10929 10930
10915 10922 10930 10933 10941 10948 10953 10957 10961 10963 10962 10963 10964 10965 10963 10964 10962 10963 10963 10963 10963 10963 10963 10961 10960 10959 10957 10956 10956 10955 10954 10954 10951 10948 10945 10943 10940 10938 10936 10934 10930 10926 10922 10919
10909 10917 10923 10927 10937 10944 10948 10954 10959 10962 10961 10961 10961 10961 10960 10960 10963 10963 10962 10962 10962 10960 10959 10958 10957 10956 10955 10954 10953 10951 10951 10950 10948 10946 10943 10940 10937 10934 10931 10928 10925 10921 10917 10912
10900 10908 10914 10923 10930 10938 10946 10951 10956 10960 10962 10961 10961 10962 10964 10964 10962 10961 10960 10960 10959 10958 10956 10955 10954 10953 10951 10950 10949 10947 10946 10945 10944 10942 10939 10935 10932 10928 10925 10922 10918 10914 10909 10905
10890 10899 10906 10916 10923 10933 10938 10946 10952 10958 10958 10958 10959 10961 10960 10960 10958 10956 10956 10955 10954 10953 10951 10949 10948 10947 10946 10945 10944 10942 10941 10939 10937 10936 10933 10929 10926 10922 10918 10914 10910 10906 10902 10897
10889 10896 10905 10911 10919 10923 10932 10942 10949 10957 10954 10955 10955 10953 10953 10955 10954 10953 10953 10952 10951 10950 10947 10946 10944 10942 10941 10939 10937 10936 10934 10933 10931 10928 10926 10922 10917 10913 10908 10904 10899 10894 10888 10883
10885 10894 10901 10906 10913 10919 10924 10937 10946 10949 10950 10949 10948 10948 10948 10951 10952 10952 10951 10949 10948 10946 10943 10942 10940 10938 10937 10935 10933 10931 10929 10926 10922 10920 10916 10912 10907 10902 10897 10892 10886 10881 10876 10869
10873 10887 10893 10900 10910 10912 10919 10928 10937 10943 10946 10945 10944 10944 10945 10948 10949 10948 10948 10947 10945 10943 10941 10939 10937 10934 10932 10930 10927 10924 10921 10917 10913 10910 10906 10902 10897 10893 10888 10882 10876 10870 10863 10857
10865 10875 10882 10890 10899 10905 10912 10920 10929 10935 10939 10940 10939 10939 10940 10942 10942 10943 10942 10942 10941 10939 10937 10934 10931 10928 10925 10922 10920 10916 10913 10910 10905 10901 10897 10893 10888 10883 10877 10871 10864 10856 10849 10841
10853 10867 10875 10882 10889 10896 10907 10915 10925 10929 10933 10936 10935 10934 10936 10935 10935 10935 10936 10936 10934 10931 10929 10928 10925 10922 10919 10916 10913 10909 10905 10901 10898 10893 10888 10884 10878 10871 10864 10857 10849 10840 10832 10824
10845 10859 10867 10874 10883 10894 10904 10911 10917 10922 10925 10925 10927 10929 10931 10931 10931 10929 10928 10926 10926 10924 10921 10920 10917 10915 10912 10909 10905 10902 10898 10892 10886 10881 10875 10870 10865 10859 10851 10843 10833 10822 10812 10802